Location: Warszawa
(52.2500°N, 21.0000°E)
Time: 15:49:28
(UTC+01:00)

Vanguard 2 - Pass Details

Date: 08 February 2023
Orbit: 553 x 2927 km, 32.9° (Epoch: 24 March)

Event Time Altitude Azimuth Distance (km) Brightness Sun altitude
Rises 03:20:45 0° 267° (W) 6,654 - -34.4°
Reaches altitude 10° 03:31:40 10° 236° (WSW) 5,751 - -32.8°
Maximum altitude 03:34:16 11° 228° (SW) 5,678 - -32.4°
Drops below altitude 10° 03:36:52 10° 219° (SW) 5,670 - -32.1°
Exits shadow 03:43:01 - 199° (SSW) 5,906 11.7 -31.2°
Sets 03:47:15 0° 187° (S) 6,260 12.0 -30.5°
